Date_and_time,latitude,longitude,wind_speed,RelWindDirFrom,WindDirFrom,air_pressure,air_temperature,relative_humidity,Temp,platform_speed_wrt_ground,air_pressure_at_mean_sea_level,platform_orientation
2019-10-14 23:50,50.6304216666667,-96.9807616666667,3.5,4.6,196,985.20,3.5,86,6.46,0.0,1012.61,360.0
2019-10-15 00:00,50.6304216666667,-96.9807616666667,3.2,4.0,196,985.25,3.4,88,6.45,0.0,1012.67,131.7
2019-10-15 00:10,50.6304233333333,-96.9807616666667,3.2,3.8,201,985.35,3.3,89,6.45,0.0,1012.78,131.7
2019-10-15 00:20,50.6304316666667,-96.98075,3.0,3.7,203,985.47,3.2,90,6.42,0.0,1012.90,131.7
2019-10-15 00:30,50.630435,-96.980745,3.5,4.4,202,985.54,3.2,91,6.40,0.0,1012.99,131.7
2019-10-15 00:40,50.6304283333333,-96.9807483333333,2.4,3.7,214,985.62,3.1,92,6.41,0.0,1013.07,131.7
2019-10-15 00:50,50.6304316666667,-96.9807533333333,1.8,2.6,201,985.60,2.9,92,6.39,0.0,1013.06,131.7
2019-10-15 01:00,50.6304366666667,-96.980755,1.7,2.7,200,985.60,3.0,92,6.36,0.0,1013.06,32.5
2019-10-15 01:10,50.6304366666667,-96.9807566666667,2.2,2.7,209,985.66,2.9,93,6.36,0.0,1013.12,32.5
2019-10-15 01:20,50.6304366666667,-96.98076,1.3,2.2,208,985.68,2.8,95,6.37,0.0,1013.15,32.5
2019-10-15 01:30,50.6304,-96.9807683333333,1.5,2.1,211,985.72,2.8,95,6.39,0.0,1013.20,32.5
2019-10-15 01:40,50.630435,-96.9807633333333,1.5,2.6,219,985.75,2.8,95,6.40,0.0,1013.24,32.5
2019-10-15 01:50,50.630435,-96.980765,0.1,1.1,225,985.73,2.9,96,6.40,0.0,1013.21,32.5
2019-10-15 02:00,50.630435,-96.980765,0.0,0.3,0,985.71,3.1,94,6.39,0.0,1013.19,18.9
2019-10-15 02:10,50.6304366666667,-96.9807666666667,1.6,2.7,210,985.85,3.2,93,6.33,0.0,1013.33,18.9
2019-10-15 02:20,50.630435,-96.9807666666667,2.4,3.4,216,985.94,2.9,96,6.27,0.0,1013.44,18.9
2019-10-15 02:30,50.630435,-96.9807666666667,1.3,2.4,215,985.95,2.7,96,6.25,0.0,1013.47,18.9
2019-10-15 02:40,50.630435,-96.980765,2.6,3.2,212,986.06,2.4,98,6.22,0.0,1013.60,18.9
2019-10-15 02:50,50.630435,-96.9807633333333,2.9,3.9,201,986.14,2.1,99,6.17,0.0,1013.69,18.9
2019-10-15 03:00,50.630435,-96.980765,3.4,4.7,206,986.24,2.1,99,6.15,0.0,1013.81,336.5
2019-10-15 03:10,50.6304333333333,-96.980765,4.0,5.7,206,986.33,2.1,99,6.12,0.0,1013.90,336.5
2019-10-15 03:20,50.6304316666667,-96.980765,4.1,5.3,209,986.36,2.2,99,6.10,0.0,1013.93,336.5
2019-10-15 03:30,50.6303983333333,-96.98075,3.1,4.5,213,986.40,2.2,99,6.08,0.0,1013.96,336.5
2019-10-15 03:40,50.6304333333333,-96.9807566666667,2.0,3.4,218,986.41,2.2,99,6.06,0.0,1013.97,336.5
2019-10-15 03:50,50.6304333333333,-96.98076,2.6,3.8,219,986.46,2.2,99,6.06,0.0,1014.01,336.5
2019-10-15 04:00,50.630435,-96.98076,3.6,5.0,227,986.52,2.2,99,6.10,0.0,1014.07,0.0
2019-10-15 04:10,50.6304316666667,-96.98076,3.7,5.3,231,986.50,2.1,99,6.20,0.0,1014.06,0.0
2019-10-15 04:20,50.6304316666667,-96.98076,3.7,5.0,238,986.48,2.1,99,6.25,0.0,1014.06,0.0
2019-10-15 04:30,50.6304316666667,-96.98076,4.0,5.3,246,986.47,2.0,99,6.27,0.0,1014.07,0.0
2019-10-15 04:40,50.6304316666667,-96.9807616666667,4.0,5.7,256,986.45,2.2,99,6.30,0.0,1014.06,0.0
2019-10-15 04:50,50.630445,-96.9807316666667,4.3,5.3,267,986.46,2.4,99,6.31,0.0,1014.06,0.0
2019-10-15 05:00,50.6304233333333,-96.98079,4.9,6.3,265,986.47,2.3,99,6.33,0.0,1014.07,240.8
2019-10-15 05:10,50.6304366666667,-96.9807783333333,4.4,6.0,273,986.44,2.2,99,6.34,0.0,1014.03,240.8
2019-10-15 05:20,50.6304333333333,-96.9807716666667,4.5,6.4,279,986.43,2.3,98,6.33,0.0,1014.03,240.8
2019-10-15 05:30,50.630435,-96.9807683333333,4.8,6.2,291,986.41,2.4,98,6.37,0.0,1014.00,240.8
2019-10-15 05:40,50.6304333333333,-96.98076,4.6,6.3,279,986.46,2.4,98,6.43,0.0,1014.05,240.8
2019-10-15 05:50,50.630435,-96.98076,3.9,6.1,275,986.53,2.3,99,6.47,0.0,1014.13,240.8
2019-10-15 06:00,50.630435,-96.98076,4.1,5.9,283,986.53,2.3,99,6.48,0.0,1014.13,90.0
2019-10-15 06:10,50.6304366666667,-96.9807783333333,4.2,6.2,292,986.56,2.4,99,6.46,0.0,1014.15,90.0
2019-10-15 06:20,50.6304383333333,-96.9807666666667,4.3,5.4,305,986.55,2.5,99,6.42,0.0,1014.15,90.0
2019-10-15 06:30,50.6304333333333,-96.9807616666667,4.0,5.9,317,986.47,2.6,99,6.37,0.0,1014.05,90.0
2019-10-15 06:40,50.6304333333333,-96.98076,4.7,5.9,310,986.44,2.6,99,6.33,0.0,1014.01,90.0
2019-10-15 06:50,50.6304316666667,-96.98076,4.3,5.7,317,986.47,2.5,99,6.30,0.0,1014.05,90.0
2019-10-15 07:00,50.6304333333333,-96.9807633333333,4.7,6.1,328,986.47,2.6,99,6.27,0.0,1014.04,228.3
2019-10-15 07:10,50.6304333333333,-96.980765,4.1,5.3,326,986.55,2.6,99,6.25,0.0,1014.13,228.3
2019-10-15 07:20,50.6304333333333,-96.980765,4.2,5.7,339,986.56,2.8,99,6.25,0.0,1014.13,228.3
2019-10-15 07:30,50.630435,-96.9807633333333,3.6,5.0,327,986.57,2.9,99,6.27,0.0,1014.13,228.3
2019-10-15 07:40,50.6304316666667,-96.9807683333333,3.2,4.2,318,986.57,2.8,99,6.29,0.0,1014.14,228.3
2019-10-15 07:50,50.6304516666667,-96.9807533333333,3.7,5.4,330,986.56,2.8,99,6.31,0.0,1014.13,228.3
2019-10-15 08:00,50.6304433333333,-96.98075,5.6,8.3,344,986.55,3.0,99,6.31,0.0,1014.10,60.8
2019-10-15 08:10,50.63043,-96.9807516666667,5.6,7.6,339,986.58,3.1,99,6.29,0.0,1014.13,60.8
2019-10-15 08:20,50.6304266666667,-96.9807533333333,5.2,7.8,335,986.61,3.1,99,6.27,0.0,1014.14,60.8
2019-10-15 08:30,50.630425,-96.980755,3.9,5.9,315,986.66,2.8,99,6.25,0.0,1014.21,60.8
2019-10-15 08:40,50.630425,-96.9807583333333,3.9,5.7,314,986.71,2.6,99,6.25,0.0,1014.28,60.8
2019-10-15 08:50,50.6304266666667,-96.98076,4.1,5.3,323,986.73,2.6,99,6.24,0.0,1014.30,60.8
2019-10-15 09:00,50.63044,-96.9807566666667,4.6,6.8,325,986.71,2.6,99,6.23,0.0,1014.27,360.0
2019-10-15 09:10,50.6304383333333,-96.9807466666667,5.1,7.2,329,986.70,2.6,99,6.21,0.0,1014.25,360.0
2019-10-15 09:20,50.63044,-96.9807466666667,4.9,6.4,325,986.73,2.5,99,6.21,0.0,1014.29,360.0
2019-10-15 09:30,50.63044,-96.9807516666667,5.6,7.6,326,986.69,2.4,99,6.21,0.0,1014.26,360.0
2019-10-15 09:40,50.63044,-96.9807533333333,5.6,8.0,329,986.69,2.4,99,6.19,0.0,1014.25,360.0
2019-10-15 09:50,50.6304383333333,-96.9807566666667,5.1,7.1,325,986.75,2.5,99,6.17,0.0,1014.30,360.0
2019-10-15 10:00,50.630445,-96.9807733333333,4.6,6.3,309,986.86,2.4,99,6.14,0.0,1014.41,318.7
2019-10-15 10:10,50.6304416666667,-96.98076,4.9,6.5,312,986.94,2.2,99,6.12,0.0,1014.51,318.7
2019-10-15 10:20,50.6304333333333,-96.98076,5.4,7.8,323,986.99,2.2,99,6.11,0.0,1014.57,318.7
2019-10-15 10:30,50.6304333333333,-96.980755,4.9,7.7,317,987.09,2.2,99,6.06,0.0,1014.69,318.7
2019-10-15 10:40,50.6304316666667,-96.9807533333333,4.9,6.5,311,987.19,2.0,99,6.05,0.0,1014.80,318.7
2019-10-15 10:50,50.6304383333333,-96.980795,4.6,6.8,310,987.25,2.0,99,6.03,0.0,1014.86,318.7
2019-10-15 11:00,50.6304316666667,-96.9807666666667,4.3,6.6,308,987.26,1.9,99,6.04,0.0,1014.88,228.3
2019-10-15 11:10,50.6304333333333,-96.980765,4.1,5.9,306,987.28,1.9,99,6.04,0.0,1014.90,228.3
2019-10-15 11:20,50.6304316666667,-96.980765,4.2,5.8,305,987.37,1.8,99,6.04,0.0,1015.01,228.3
2019-10-15 11:30,50.6304316666667,-96.980765,4.1,5.8,295,987.48,1.7,99,6.04,0.0,1015.12,228.3
2019-10-15 11:40,50.6304316666667,-96.9807633333333,4.6,6.4,298,987.60,1.7,99,6.02,0.0,1015.25,228.3
2019-10-15 11:50,50.6304316666667,-96.980765,4.4,6.0,299,987.71,1.7,99,6.03,0.0,1015.36,228.3
2019-10-15 12:00,50.630415,-96.9807733333333,4.3,6.0,303,987.77,1.8,99,6.08,0.0,1015.43,360.0
2019-10-15 12:10,50.63043,-96.98077,4.3,6.4,297,987.87,1.7,100,6.12,0.0,1015.53,360.0
2019-10-15 12:20,50.63043,-96.980755,4.9,6.4,295,987.94,1.7,100,6.15,0.0,1015.61,360.0
2019-10-15 12:30,50.6304316666667,-96.9807583333333,4.7,6.4,303,988.01,1.7,100,6.16,0.0,1015.68,360.0
2019-10-15 12:40,50.6304333333333,-96.9807583333333,5.1,6.6,309,988.05,1.7,100,6.16,0.0,1015.73,360.0
2019-10-15 12:50,50.6304383333333,-96.980765,5.1,7.2,310,988.09,1.7,100,6.15,0.0,1015.77,360.0
2019-10-15 13:00,50.6304483333333,-96.98077,5.2,7.0,305,988.21,1.6,100,6.14,0.0,1015.90,12.6
2019-10-15 13:10,50.6304433333333,-96.9807716666667,5.1,7.1,301,988.37,1.6,100,6.12,0.0,1016.07,12.6
2019-10-15 13:20,50.6304433333333,-96.9807716666667,4.4,6.5,299,988.51,1.6,100,6.12,0.0,1016.22,12.6
2019-10-15 13:30,50.6304433333333,-96.9807683333333,3.9,6.6,300,988.65,1.6,100,6.13,0.0,1016.36,12.6
2019-10-15 13:40,50.6304283333333,-96.9807683333333,4.4,6.5,298,988.72,1.6,100,6.13,0.0,1016.44,12.6
2019-10-15 13:50,50.63047,-96.9807483333333,4.7,6.9,298,988.77,1.5,100,6.12,0.0,1016.49,12.6
2019-10-15 14:00,50.6304366666667,-96.9807733333333,5.2,8.1,298,988.79,1.5,100,6.11,0.0,1016.52,311.7
2019-10-15 14:10,50.630445,-96.980765,5.2,8.0,296,988.85,1.5,100,6.12,0.0,1016.58,311.7
2019-10-15 14:20,50.6304283333333,-96.9807483333333,5.5,8.5,297,988.90,1.6,100,6.12,0.0,1016.63,311.7
2019-10-15 14:30,50.630435,-96.9807433333333,6.1,9.8,294,988.96,1.8,99,6.12,0.0,1016.68,311.7
2019-10-15 14:40,50.6304366666667,-96.9807466666667,6.5,8.9,301,989.03,1.9,99,6.11,0.0,1016.75,311.7
2019-10-15 14:50,50.6304383333333,-96.98075,5.8,8.9,294,989.14,2.0,99,6.12,0.0,1016.85,311.7
2019-10-15 15:00,50.6304383333333,-96.9807533333333,6.3,8.8,293,989.17,2.1,99,6.12,0.0,1016.88,8.4
2019-10-15 15:10,50.6304366666667,-96.9807566666667,5.8,8.2,297,989.32,2.1,99,6.11,0.0,1017.04,8.4
2019-10-15 15:20,50.63042,-96.980765,7.1,9.5,305,989.47,2.1,99,6.10,0.0,1017.19,8.4
2019-10-15 15:30,50.630425,-96.9807583333333,7.1,9.2,305,989.56,2.1,99,6.09,0.0,1017.28,8.4
2019-10-15 15:40,50.6304283333333,-96.9807583333333,6.0,9.3,290,989.69,2.2,99,6.10,0.0,1017.41,8.4
2019-10-15 15:50,50.6304283333333,-96.9807566666667,7.1,8.9,289,989.76,2.3,99,6.10,0.0,1017.48,8.4
2019-10-15 16:00,50.63043,-96.9807533333333,6.5,8.8,295,989.87,2.4,99,6.10,0.0,1017.59,165.5
2019-10-15 16:10,50.6304416666667,-96.980765,5.9,9.5,290,990.02,2.5,99,6.10,0.0,1017.73,165.5
2019-10-15 16:20,50.630445,-96.9807616666667,6.8,9.2,294,990.12,2.4,99,6.11,0.0,1017.83,165.5
2019-10-15 16:30,50.6304416666667,-96.9807533333333,5.6,10.2,288,990.23,2.5,99,6.11,0.0,1017.93,165.5
2019-10-15 16:40,50.63044,-96.980755,6.0,8.4,281,990.28,2.5,99,6.12,0.0,1017.98,165.5
2019-10-15 16:50,50.6304433333333,-96.9807583333333,5.2,8.0,289,990.36,2.4,99,6.13,0.0,1018.07,165.5
2019-10-15 17:00,50.6304433333333,-96.9807583333333,5.6,7.8,276,990.47,2.4,99,6.14,0.0,1018.17,60.8
2019-10-15 17:10,50.6304,-96.9807366666667,6.5,8.8,283,990.55,2.2,100,6.15,0.0,1018.26,60.8
2019-10-15 17:20,50.63044,-96.98076,6.1,8.5,277,990.62,2.4,100,6.15,0.0,1018.33,60.8
2019-10-15 17:30,50.6304383333333,-96.9807566666667,6.8,9.6,281,990.68,2.6,99,6.15,0.0,1018.38,60.8
2019-10-15 17:40,50.6304383333333,-96.9807566666667,6.8,9.9,282,990.78,2.7,99,6.15,0.0,1018.46,60.8
2019-10-15 17:50,50.6304366666667,-96.980755,7.2,10.4,284,990.82,2.7,99,6.15,0.0,1018.51,60.8
2019-10-15 18:00,50.630435,-96.980755,6.9,11.2,280,990.85,2.8,99,6.17,0.0,1018.53,192.6
2019-10-15 18:10,50.6304333333333,-96.980755,6.6,9.3,287,990.85,3.0,99,6.18,0.0,1018.52,192.6
2019-10-15 18:20,50.630435,-96.9807566666667,7.7,11.3,297,990.84,3.1,99,6.18,0.0,1018.50,192.6
2019-10-15 18:30,50.63044,-96.9807766666667,8.2,11.3,298,990.87,3.1,99,6.18,0.0,1018.53,192.6
2019-10-15 18:40,50.6304316666667,-96.98076,6.7,10.2,287,990.96,3.1,99,6.18,0.0,1018.62,192.6
2019-10-15 18:50,50.6304333333333,-96.98076,5.9,9.9,286,990.95,3.3,99,6.18,0.0,1018.61,192.6
2019-10-15 19:00,50.6304233333333,-96.9807616666667,7.4,11.2,283,990.92,3.4,99,6.18,0.0,1018.58,270.0
2019-10-15 19:10,50.63042,-96.9807633333333,7.9,10.9,283,991.00,3.5,99,6.19,0.0,1018.65,270.0
2019-10-15 19:20,50.6304233333333,-96.9807616666667,6.5,10.4,277,990.99,3.6,99,6.19,0.0,1018.63,270.0
2019-10-15 19:30,50.6304233333333,-96.9807616666667,6.5,8.8,275,990.95,3.7,98,6.20,0.0,1018.57,270.0
2019-10-15 19:40,50.6304266666667,-96.98076,5.7,9.1,281,991.01,4.1,95,6.21,0.0,1018.62,270.0
2019-10-15 19:50,50.6304266666667,-96.98076,8.1,12.1,293,991.12,4.2,95,6.22,0.0,1018.71,270.0
2019-10-15 20:00,50.6304266666667,-96.98076,8.2,10.7,295,991.29,4.1,95,6.24,0.0,1018.89,161.1
2019-10-15 20:10,50.63047,-96.9808033333333,7.9,11.6,295,991.41,4.2,95,6.27,0.0,1019.00,161.1
2019-10-15 20:20,50.6304233333333,-96.98076,7.3,11.1,299,991.42,4.2,94,6.27,0.0,1019.01,161.1
2019-10-15 20:30,50.6304366666667,-96.9807683333333,7.4,10.9,294,991.49,4.2,94,6.26,0.0,1019.08,161.1
2019-10-15 20:40,50.630435,-96.9807633333333,8.7,12.2,300,991.61,4.1,95,6.25,0.0,1019.20,161.1
2019-10-15 20:50,50.6304366666667,-96.9807633333333,8.4,13.5,297,991.72,3.9,97,6.25,0.0,1019.32,161.1
2019-10-15 21:00,50.63043,-96.980765,7.7,12.3,293,991.80,3.9,98,6.24,0.0,1019.40,194.5
2019-10-15 21:10,50.6304283333333,-96.9807683333333,7.0,10.2,284,991.93,3.7,99,6.24,0.0,1019.53,194.5
2019-10-15 21:20,50.6304266666667,-96.9807666666667,6.8,12.0,283,992.05,3.4,99,6.23,0.0,1019.67,194.5
2019-10-15 21:30,50.6304266666667,-96.98077,6.0,9.3,281,992.12,3.3,100,6.23,0.0,1019.72,194.5
2019-10-15 21:40,50.630425,-96.980765,5.4,8.7,283,992.19,3.3,100,6.22,0.0,1019.79,194.5
2019-10-15 21:50,50.630425,-96.9807633333333,5.8,9.3,286,992.21,3.3,100,6.21,0.0,1019.81,194.5
2019-10-15 22:00,50.6304266666667,-96.980765,5.3,9.4,292,992.32,3.6,99,6.21,0.0,1019.91,270.0
2019-10-15 22:10,50.6304483333333,-96.9807466666667,7.1,11.0,297,992.37,3.7,99,6.21,0.0,1019.96,270.0
2019-10-15 22:20,50.6304216666667,-96.980765,6.7,9.8,300,992.43,3.8,99,6.21,0.0,1020.01,270.0
2019-10-15 22:30,50.630425,-96.9807616666667,5.9,8.3,298,992.48,3.9,99,6.22,0.0,1020.06,270.0
2019-10-15 22:40,50.6304266666667,-96.98076,6.1,8.9,291,992.47,4.0,99,6.23,0.0,1020.05,270.0
2019-10-15 22:50,50.6304266666667,-96.98076,5.5,8.3,295,992.51,4.0,99,6.23,0.0,1020.10,270.0
2019-10-15 23:00,50.6304283333333,-96.9807583333333,4.8,7.6,292,992.63,4.0,99,6.24,0.0,1020.23,0.0
2019-10-15 23:10,50.6304283333333,-96.9807583333333,5.2,8.0,283,992.74,3.9,99,6.25,0.0,1020.37,0.0
2019-10-15 23:20,50.6304266666667,-96.9807566666667,5.3,8.4,288,992.83,3.8,99,6.26,0.0,1020.46,0.0
2019-10-15 23:30,50.6304266666667,-96.9807566666667,5.5,7.9,285,992.91,3.7,99,6.27,0.0,1020.55,0.0
